User: anonymous   Login
Location: Dittelbrunn
(50.0738°N, 10.2196°E)
Time: 10:38:41
(UTC+00:00)
Language:

Cosmos 2263 Rocket - Orbit

View from above orbital plane
View from above orbital plane
View from above satellite
View from above satellite

Ground track
Ground track

The orbit data is extracted from the following two-line orbital elements,

1 22803U 93059B   20336.65682957 -.00000187  00000-0 -69258-4 0  9995
2 22803  70.9881 106.8987 0019580 262.4532  97.4367 14.16828447406984
Epoch (UTC): 01 December 2020 15:45:50
Eccentricity: 0.0019580
inclination: 70.9881°
perigee height: 822 km
apogee height: 850 km
right ascension of ascending node: 106.8987°
argument of perigee: 262.4532°
revolutions per day: 14.16828447
mean anomaly at epoch: 97.4367°
orbit number at epoch: 40698

The dashed part of the orbit path shows where the satellite is in the earth's shadow,  

DLR